Weather History for Henderson, KY

Change the Weather History Date:

Sunday, September 30, 2012

  Actual Average Record
Temperature  
Mean Temperature 62 °F -  
Max Temperature 75 °F 78 °F 90 °F (1953)
Min Temperature 48 °F 53 °F 34 °F (1949)
Degree Days  
Heating Degree Days 4    
Growing Degree Days 12 (Base 50)    
Moisture  
Dew Point 47 °F    
Average Humidity 61    
Maximum Humidity 82    
Minimum Humidity 41    
Precipitation  
Precipitation 0.00 in - - ()
Sea Level Pressure  
Sea Level Pressure 29.89 in    
Wind  
Wind Speed 3 mph (NW)    
Max Wind Speed 9 mph    
Max Gust Speed -    
Visibility 8 miles    
Events      
Averages and records for this station are not official NWS values.
T = Trace of Precipitation, MM = Missing Value Source: NWS Daily Summary

Daily Weather History Graph

Daily Weather History Graph

Search for Another Location

Airport:

Trip Planner

Search our weather history database for the weather conditions in past years. The results will help you decide how hot, cold, wet, or windy it might be!

Date:

Astronomy

Sep. 30, 2012 Rise Set
Actual Time 6:45 AM CDT 6:34 PM CDT
Civil Twilight 6:19 AM CDT 7:00 PM CDT
Nautical Twilight 5:49 AM CDT 7:31 PM CDT
Astronomical Twilight 5:18 AM CDT 8:01 PM CDT
Moon 6:40 PM CDT (9/30) 7:14 AM CDT (9/30)
Length of Visible Light 12h 40m
Length of Day
11h 48m
Full, 100% of the Moon is Illuminated
Sep 30
Full
Oct 8
Last Quarter
Oct 15
New
Oct 21
First Quarter
Oct 29
Full

Hourly Weather History & Observations

Time (CDT) Temp. Dew Point Humidity Pressure Visibility Wind Dir Wind Speed Gust Speed Precip Events Conditions
12:15 AM 53.6 °F 44.6 °F 72% 29.98 in 4.0 mi Calm Calm - N/A   Clear
12:35 AM 53.6 °F 44.6 °F 72% 29.97 in 5.0 mi Calm Calm - N/A   Clear
12:55 AM 51.8 °F 44.6 °F 76% 29.97 in 4.0 mi SW 4.6 mph - N/A   Clear
1:15 AM 53.6 °F 44.6 °F 72% 29.97 in 5.0 mi Calm Calm - N/A   Clear
1:35 AM 53.6 °F 46.4 °F 77% 29.96 in 1.8 mi Calm Calm - N/A   Clear
1:55 AM 51.8 °F 44.6 °F 76% 29.96 in 1.0 mi Calm Calm - N/A   Clear
2:15 AM 51.8 °F 44.6 °F 76% 29.96 in 3.0 mi Calm Calm - N/A   Clear
2:35 AM 51.8 °F 44.6 °F 76% 29.95 in 3.0 mi Calm Calm - N/A   Clear
2:55 AM 51.8 °F 44.6 °F 76% 29.95 in 4.0 mi Calm Calm - N/A   Clear
3:15 AM 51.8 °F 42.8 °F 71% 29.95 in 4.0 mi Calm Calm - N/A   Clear
3:35 AM 50.0 °F 42.8 °F 76% 29.94 in 2.5 mi SW 3.5 mph - N/A   Clear
3:55 AM 50.0 °F 42.8 °F 76% 29.94 in 5.0 mi SSW 3.5 mph - N/A   Clear
4:15 AM 50.0 °F 42.8 °F 76% 29.94 in 4.0 mi Calm Calm - N/A   Clear
4:55 AM 50.0 °F 42.8 °F 76% 29.93 in 0.8 mi Calm Calm - N/A   Unknown
5:15 AM 48.2 °F 42.8 °F 82% 29.92 in 0.5 mi Calm Calm - N/A   Unknown
5:35 AM 50.0 °F 42.8 °F 76% 29.92 in 0.5 mi Calm Calm - N/A   Unknown
5:55 AM 48.2 °F 41.0 °F 76% 29.92 in 1.8 mi Calm Calm - N/A   Clear
6:15 AM 48.2 °F 39.2 °F 71% 29.92 in 0.8 mi Calm Calm - N/A   Unknown
6:35 AM 48.2 °F 39.2 °F 71% 29.92 in 0.5 mi SSW 3.5 mph - N/A   Unknown
6:55 AM 48.2 °F 39.2 °F 71% 29.92 in 3.0 mi SSW 3.5 mph - N/A   Clear
7:15 AM 48.2 °F 42.8 °F 82% 29.92 in 4.0 mi SSW 3.5 mph - N/A   Clear
7:35 AM 51.8 °F 44.6 °F 76% 29.92 in 4.0 mi Calm Calm - N/A   Clear
7:55 AM 55.4 °F 48.2 °F 77% 29.93 in 6.0 mi Calm Calm - N/A   Clear
8:15 AM 57.2 °F 50.0 °F 77% 29.93 in 10.0 mi SW 5.8 mph - N/A   Clear
8:35 AM 59.0 °F 51.8 °F 77% 29.93 in 10.0 mi WSW 5.8 mph - N/A   Clear
8:55 AM 59.0 °F 51.8 °F 77% 29.93 in 10.0 mi WSW 5.8 mph - N/A   Clear
9:15 AM 60.8 °F 51.8 °F 72% 29.93 in 10.0 mi SW 4.6 mph - N/A   Clear
9:35 AM 62.6 °F 51.8 °F 68% 29.93 in 10.0 mi SW 4.6 mph - N/A   Clear
9:55 AM 64.4 °F 51.8 °F 64% 29.93 in 10.0 mi WSW 5.8 mph - N/A   Clear
10:15 AM 68.0 °F 51.8 °F 56% 29.92 in 10.0 mi SW 4.6 mph - N/A   Clear
10:35 AM - - N/A% - 10.0 mi North - - N/A   Clear
10:55 AM 71.6 °F 51.8 °F 50% 29.91 in 10.0 mi WSW 3.5 mph - N/A   Clear
11:15 AM 73.4 °F 51.8 °F 47% 29.90 in 10.0 mi West 6.9 mph - N/A   Clear
11:35 AM - - N/A% 29.89 in 10.0 mi WNW 5.8 mph - N/A   Clear
11:55 AM 73.4 °F 51.8 °F 47% - 10.0 mi North - - N/A   Clear
12:15 PM 73.4 °F 51.8 °F 47% 29.89 in 10.0 mi NW 8.1 mph - N/A   Clear
12:35 PM 73.4 °F 51.8 °F 47% 29.88 in 10.0 mi NW 8.1 mph - N/A   Clear
12:55 PM 75.2 °F 51.8 °F 44% 29.87 in 10.0 mi WNW 5.8 mph - N/A   Clear
1:15 PM 73.4 °F 51.8 °F 47% 29.86 in 10.0 mi NW 9.2 mph - N/A   Clear
1:35 PM 73.4 °F 51.8 °F 47% 29.85 in 10.0 mi WNW 8.1 mph - N/A   Clear
1:55 PM 75.2 °F 51.8 °F 44% 29.84 in 10.0 mi WNW 5.8 mph - N/A   Clear
2:15 PM 73.4 °F 48.2 °F 41% 29.84 in 10.0 mi WNW 6.9 mph - N/A   Clear
2:35 PM 73.4 °F 48.2 °F 41% 29.84 in 10.0 mi WNW 9.2 mph - N/A   Clear
3:15 PM 75.2 °F 50.0 °F 41% 29.84 in 10.0 mi West 5.8 mph - N/A   Clear
3:35 PM 71.6 °F 51.8 °F 50% 29.84 in 10.0 mi North 6.9 mph - N/A   Clear
3:55 PM 71.6 °F 48.2 °F 43% 29.83 in 10.0 mi North 5.8 mph - N/A   Clear
4:15 PM 71.6 °F 48.2 °F 43% 29.83 in 10.0 mi North 5.8 mph - N/A   Clear
4:35 PM 71.6 °F 50.0 °F 46% 29.82 in 10.0 mi North 6.9 mph - N/A   Clear
4:55 PM 69.8 °F 48.2 °F 46% 29.82 in 10.0 mi NNE 4.6 mph - N/A   Clear
5:15 PM 69.8 °F 48.2 °F 46% 29.82 in 10.0 mi NNE 5.8 mph - N/A   Clear
5:35 PM 69.8 °F 48.2 °F 46% 29.82 in 10.0 mi North 4.6 mph - N/A   Clear
5:55 PM 69.8 °F 48.2 °F 46% 29.82 in 10.0 mi North 3.5 mph - N/A   Clear
6:15 PM 68.0 °F 48.2 °F 49% 29.83 in 10.0 mi North 4.6 mph - N/A   Clear
6:35 PM 66.2 °F 48.2 °F 52% 29.83 in 10.0 mi North 3.5 mph - N/A   Clear
6:55 PM 66.2 °F 46.4 °F 49% 29.83 in 10.0 mi North 5.8 mph - N/A   Clear
7:15 PM 66.2 °F 46.4 °F 49% 29.83 in 10.0 mi North 4.6 mph - N/A   Clear
7:35 PM 64.4 °F 46.4 °F 52% 29.83 in 10.0 mi North 5.8 mph - N/A   Clear
8:15 PM 64.4 °F 46.4 °F 52% 29.83 in 10.0 mi NNE 4.6 mph - N/A   Clear
8:35 PM 64.4 °F 46.4 °F 52% 29.84 in 10.0 mi North 3.5 mph - N/A   Clear
8:55 PM 62.6 °F 46.4 °F 55% 29.84 in 10.0 mi North 4.6 mph - N/A   Clear
9:15 PM 62.6 °F 46.4 °F 55% 29.85 in 10.0 mi Calm Calm - N/A   Clear
9:35 PM 60.8 °F 46.4 °F 59% 29.85 in 10.0 mi Calm Calm - N/A   Clear
10:15 PM 60.8 °F 46.4 °F 59% 29.85 in 10.0 mi NNE 4.6 mph - N/A   Clear
10:35 PM 60.8 °F 46.4 °F 59% 29.84 in 10.0 mi NNE 5.8 mph - N/A   Clear
10:55 PM 60.8 °F 46.4 °F 59% 29.84 in 10.0 mi NNE 5.8 mph - N/A   Clear
11:15 PM 60.8 °F 46.4 °F 59% 29.84 in 10.0 mi NNE 5.8 mph - N/A   Clear
11:35 PM 60.8 °F 46.4 °F 59% 29.83 in 10.0 mi NNE 6.9 mph - N/A   Clear
11:55 PM 60.8 °F 46.4 °F 59% 29.82 in 10.0 mi NNE 6.9 mph - N/A   Clear